Terug naar catalogus

FENGYUN 1C DEB

ActiefSSO
NORAD 30263·DEBRIS·🇨🇳 China

Gelanceerd May 10, 1999 vanaf Taiyuan Satellite Launch Center

Loading…

Volgende Passages (komende 24 uur)

TLE

VersSource: Space-Track

Epoch: Sep 14, 2026, 06:45 UTC

1 30263U 99025XY  26257.28166810  .00001193  00000-0  73690-3 0  9995
2 30263  98.9492  12.2092 0142563 314.8528  73.8123 14.02421098998860

Volg FENGYUN 1C DEB in realtime met AllMySat

Download on the App Store